Weather History for KCDA - January, 2013

Change the Weather History Date:

Thursday, January 17, 2013

  Actual Average (K1V4) Record (K1V4)
Temperature  
Mean Temperature 18 °F 16 °F  
Max Temperature 31 °F 27 °F 58 °F (1995)
Min Temperature 5 °F 6 °F -32 °F (1907)
Degree Days  
Heating Degree Days 47 49  
Month to date heating degree days 816  
Since 1 July heating degree days 3769  
Cooling Degree Days 0 0  
Month to date cooling degree days 0  
Year to date cooling degree days 0  
Moisture  
Dew Point 8 °F    
Average Humidity 62    
Maximum Humidity 92    
Minimum Humidity 23    
Precipitation  
Precipitation 0.00 in 0.08 in 0.71 in (1909)
Month to date precipitation 1.36  
Year to date precipitation 1.36  
Sea Level Pressure  
Sea Level Pressure 29.89 in    
Wind  
Wind Speed 6 mph (WSW)    
Max Wind Speed 18 mph    
Max Gust Speed 26 mph    
Visibility 9 miles    
Events Snow    
T = Trace of Precipitation, MM = Missing Value Source: NWS Daily Summary

Daily Weather History Graph

Daily Weather History Graph

Search for Another Location

Airport or City:

Trip Planner

Search our weather history database for the weather conditions in past years. The results will help you decide how hot, cold, wet, or windy it might be!

Date:

Astronomy

Jan. 17, 2013 Rise Set
Actual Time 7:20 AM EST 4:36 PM EST
Civil Twilight 6:47 AM EST 5:09 PM EST
Nautical Twilight 6:11 AM EST 5:45 PM EST
Astronomical Twilight 5:37 AM EST 6:19 PM EST
Moon 10:07 AM EST (1/17) 11:44 PM EST (1/17)
Length of Visible Light 10h 21m
Length of Day
9h 16m
Waxing Crescent, 37% of the Moon is Illuminated
Jan 17
Waxing Crescent
Jan 18
First Quarter
Jan 26
Full
Feb 3
Last Quarter
Feb 10
New

Hourly Weather History & Observations

Time (EST) Temp. Windchill Dew Point Humidity Pressure Visibility Wind Dir Wind Speed Gust Speed Precip Events Conditions
12:15 AM 28.4 °F 22.2 °F 25.7 °F 90% 29.74 in 10.0 mi SSE 5.8 mph - N/A   Overcast
12:35 AM 28.0 °F 24.2 °F 25.7 °F 91% 29.74 in 10.0 mi SE 3.5 mph - N/A   Overcast
12:55 AM 27.7 °F 21.3 °F 25.3 °F 91% 29.74 in 7.0 mi SSE 5.8 mph - N/A   Overcast
1:15 AM 27.3 °F 20.9 °F 25.2 °F 92% 29.74 in 5.0 mi SSE 5.8 mph - N/A   Overcast
1:35 AM 26.6 °F 19.1 °F 24.4 °F 92% 29.74 in 5.0 mi SSE 6.9 mph - N/A   Mostly Cloudy
1:55 AM 27.0 °F 20.5 °F 24.8 °F 92% 29.74 in 5.0 mi SSE 5.8 mph - N/A   Mostly Cloudy
2:15 AM 26.6 °F 22.6 °F 24.6 °F 92% 29.74 in 7.0 mi SSE 3.5 mph - N/A   Overcast
2:35 AM 26.6 °F 20.0 °F 24.4 °F 92% 29.74 in 10.0 mi SE 5.8 mph - N/A   Overcast
2:55 AM 27.1 °F 19.7 °F 24.8 °F 91% 29.73 in 10.0 mi SSE 6.9 mph - N/A   Overcast
3:35 AM 27.1 °F - 24.6 °F 90% 29.74 in 10.0 mi Calm Calm - N/A   Overcast
3:55 AM 27.1 °F 23.2 °F 24.4 °F 90% 29.74 in 10.0 mi ESE 3.5 mph - N/A   Overcast
4:15 AM 26.6 °F 18.2 °F 23.9 °F 90% 29.72 in 7.0 mi SE 8.1 mph - N/A   Overcast
4:35 AM 27.0 °F 20.5 °F 24.3 °F 90% 29.72 in 10.0 mi SE 5.8 mph - N/A   Overcast
4:55 AM 27.1 °F 19.7 °F 24.3 °F 89% 29.72 in 10.0 mi SE 6.9 mph - N/A   Overcast
5:15 AM 27.1 °F 18.9 °F 23.9 °F 88% 29.72 in 10.0 mi SSE 8.1 mph - N/A   Overcast
5:35 AM 27.7 °F 22.4 °F 23.9 °F 86% 29.73 in 10.0 mi South 4.6 mph - N/A   Overcast
5:55 AM 27.3 °F - 23.9 °F 87% 29.75 in 10.0 mi Calm Calm - N/A   Overcast
6:15 AM 27.9 °F 24.0 °F 23.7 °F 84% 29.75 in 10.0 mi SE 3.5 mph - N/A   Overcast
6:35 AM 28.2 °F 22.0 °F 23.7 °F 83% 29.76 in 10.0 mi SE 5.8 mph - N/A   Overcast
6:55 AM 28.4 °F - 23.7 °F 83% 29.76 in 10.0 mi Calm Calm - N/A   Overcast
7:15 AM 28.8 °F - 23.9 °F 82% 29.77 in 10.0 mi Calm Calm - N/A   Overcast
7:35 AM 30.2 °F 22.6 °F 23.9 °F 77% 29.78 in 10.0 mi WSW 8.1 mph - N/A   Overcast
7:55 AM 30.6 °F 24.7 °F 24.4 °F 78% 29.79 in 10.0 mi WSW 5.8 mph - N/A Snow Light Snow
8:15 AM 30.9 °F 23.5 °F 24.8 °F 78% 29.80 in 10.0 mi West 8.1 mph 16.1 mph N/A Snow Light Snow
8:35 AM 31.5 °F 24.2 °F 24.8 °F 76% 29.81 in 10.0 mi West 8.1 mph 18.4 mph N/A   Overcast
8:55 AM 31.1 °F 25.4 °F 25.9 °F 81% 29.82 in 1.2 mi WSW 5.8 mph - N/A Snow Light Snow
9:15 AM 30.6 °F 23.1 °F 27.0 °F 86% 29.84 in 1.2 mi WNW 8.1 mph - N/A Snow Light Snow
9:35 AM 27.1 °F 14.9 °F 21.6 °F 80% 29.85 in 0.8 mi NW 16.1 mph 26.5 mph N/A Snow Light Snow
9:55 AM 25.7 °F 15.1 °F 19.6 °F 78% 29.87 in 2.5 mi NW 11.5 mph 19.6 mph N/A Snow Light Snow
10:15 AM 25.3 °F 13.1 °F 17.8 °F 73% 29.89 in 7.0 mi WNW 15.0 mph 21.9 mph N/A   Overcast
10:35 AM 24.8 °F 14.0 °F 17.4 °F 74% 29.90 in 7.0 mi WNW 11.5 mph 21.9 mph N/A Snow Light Snow
10:55 AM 23.9 °F 9.9 °F 11.8 °F 60% 29.92 in 5.0 mi WNW 18.4 mph 26.5 mph N/A   Haze
11:15 AM 22.6 °F 10.1 °F 4.3 °F 45% 29.93 in 10.0 mi West 13.8 mph 19.6 mph N/A   Overcast
11:35 AM 21.6 °F 10.6 °F -0.2 °F 39% 29.93 in 10.0 mi West 10.4 mph 23.0 mph N/A   Overcast
11:55 AM 21.0 °F 7.6 °F -1.3 °F 38% 29.95 in 10.0 mi WNW 15.0 mph 21.9 mph N/A   Overcast
12:15 PM 19.6 °F 6.8 °F -7.2 °F 30% 29.96 in 10.0 mi WNW 12.7 mph 20.7 mph N/A   Mostly Cloudy
12:35 PM 19.4 °F 7.2 °F -9.4 °F 28% 29.97 in 10.0 mi West 11.5 mph 18.4 mph N/A   Scattered Clouds
12:55 PM 19.0 °F 8.2 °F -8.1 °F 30% 29.97 in 10.0 mi West 9.2 mph 19.6 mph N/A   Clear
1:15 PM 18.0 °F 4.2 °F -9.8 °F 29% 29.98 in 10.0 mi West 13.8 mph 20.7 mph N/A   Clear
1:35 PM 18.0 °F 6.9 °F -8.3 °F 31% 29.98 in 10.0 mi West 9.2 mph 18.4 mph N/A   Clear
1:55 PM 18.0 °F 6.9 °F -7.8 °F 32% 29.99 in 10.0 mi West 9.2 mph - N/A   Clear
2:15 PM 16.3 °F 4.1 °F -6.7 °F 36% 29.99 in 10.0 mi NNW 10.4 mph - N/A   Clear
2:35 PM 16.3 °F 3.4 °F -8.1 °F 33% 30.00 in 10.0 mi NW 11.5 mph 18.4 mph N/A   Clear
2:55 PM 15.8 °F 4.2 °F -11.4 °F 29% 30.01 in 10.0 mi WNW 9.2 mph - N/A   Clear
3:15 PM 14.7 °F 5.9 °F -10.8 °F 31% 30.03 in 10.0 mi NNW 5.8 mph - N/A   Clear
3:35 PM 13.6 °F 3.5 °F -15.3 °F 27% 30.03 in 10.0 mi NNW 6.9 mph - N/A   Clear
3:55 PM 12.7 °F 3.6 °F -17.5 °F 25% 30.04 in 10.0 mi NW 5.8 mph - N/A   Clear
4:15 PM 11.3 °F -0.4 °F -19.8 °F 24% 30.05 in 10.0 mi SW 8.1 mph - N/A   Clear
4:35 PM 11.3 °F -0.4 °F -20.4 °F 23% 30.05 in 10.0 mi SW 8.1 mph - N/A   Clear
4:55 PM 9.1 °F -1.9 °F -19.3 °F 27% 30.06 in 10.0 mi WSW 6.9 mph - N/A   Clear
5:55 PM 8.2 °F - -12.8 °F 38% 30.08 in 10.0 mi Calm Calm - N/A   Clear
6:35 PM 7.7 °F -0.9 °F -13.0 °F 38% 30.08 in 10.0 mi WSW 4.6 mph - N/A   Clear
8:55 PM 6.4 °F - -9.9 °F 47% 30.10 in 10.0 mi Calm Calm - N/A   Clear
9:15 PM 6.6 °F - -10.1 °F 46% 30.09 in 10.0 mi Calm Calm - N/A   Clear
9:55 PM 5.0 °F -2.1 °F -11.9 °F 46% 30.08 in 10.0 mi SW 3.5 mph - N/A   Clear
10:15 PM 5.0 °F -4.1 °F -11.2 °F 47% 30.08 in 10.0 mi SW 4.6 mph - N/A   Clear
10:35 PM 5.0 °F -2.1 °F -10.7 °F 49% 30.08 in 10.0 mi SW 3.5 mph - N/A   Clear
10:55 PM 5.0 °F - -10.7 °F 49% 30.08 in 10.0 mi Calm Calm - N/A   Clear